Time,TemperatureF,DewpointF,PressureIn,WindDirection,WindDirectionDegrees,WindSpeedMPH,WindSpeedGustMPH,Humidity,HourlyPrecipIn,Conditions,Clouds,dailyrainin,SoftwareType,DateUTC
2013-03-27 00:01:00,54.0,43.0,29.95,SSW,210,3.0,-999.0,66,-99.99,,,-99.99,,2013-03-27 07:01:00,
2013-03-27 00:11:00,52.0,45.0,29.95,North,0,0.0,-999.0,76,-99.99,,,-99.99,,2013-03-27 07:11:00,
2013-03-27 00:21:00,52.0,43.0,29.95,South,180,7.0,-999.0,71,-99.99,,,-99.99,,2013-03-27 07:21:00,
2013-03-27 00:31:00,52.0,45.0,29.95,SE,140,5.0,-999.0,76,-99.99,,,-99.99,,2013-03-27 07:31:00,
2013-03-27 00:41:00,52.0,45.0,29.95,SSE,150,7.0,-999.0,76,-99.99,,,-99.99,,2013-03-27 07:41:00,
2013-03-27 00:53:00,50.0,45.0,29.95,South,170,6.0,-999.0,81,-99.99,,,-99.99,,2013-03-27 07:53:00,
2013-03-27 01:02:00,50.0,45.0,29.95,South,170,6.0,-999.0,81,-99.99,,,-99.99,,2013-03-27 08:02:00,
2013-03-27 01:11:00,48.0,43.0,29.95,South,180,7.0,-999.0,81,-99.99,,,-99.99,,2013-03-27 08:11:00,
2013-03-27 01:21:00,48.0,43.0,29.95,South,180,7.0,-999.0,81,-99.99,,,-99.99,,2013-03-27 08:21:00,
2013-03-27 01:32:00,50.0,43.0,29.95,South,170,5.0,-999.0,76,-99.99,,,-99.99,,2013-03-27 08:32:00,
2013-03-27 01:42:00,50.0,43.0,29.95,South,190,5.0,-999.0,76,-99.99,,,-99.99,,2013-03-27 08:42:00,
2013-03-27 01:51:00,50.0,43.0,29.95,South,170,6.0,-999.0,76,-99.99,,,-99.99,,2013-03-27 08:51:00,
2013-03-27 02:01:00,50.0,43.0,29.95,South,170,6.0,-999.0,76,-99.99,,,-99.99,,2013-03-27 09:01:00,
2013-03-27 02:11:00,50.0,45.0,29.95,SE,130,3.0,-999.0,81,-99.99,,,-99.99,,2013-03-27 09:11:00,
2013-03-27 02:21:00,50.0,45.0,29.95,South,170,5.0,-999.0,81,-99.99,,,-99.99,,2013-03-27 09:21:00,
2013-03-27 02:32:00,52.0,45.0,29.94,SSE,150,2.0,-999.0,76,-99.99,,,-99.99,,2013-03-27 09:32:00,
2013-03-27 02:42:00,52.0,45.0,29.94,SSE,160,3.0,-999.0,76,-99.99,,,-99.99,,2013-03-27 09:42:00,
2013-03-27 02:52:00,50.0,45.0,29.94,SSE,160,5.0,-999.0,81,-99.99,,,-99.99,,2013-03-27 09:52:00,
2013-03-27 03:02:00,50.0,45.0,29.94,SSE,160,5.0,-999.0,81,-99.99,,,-99.99,,2013-03-27 10:02:00,
2013-03-27 03:12:00,50.0,45.0,29.94,South,170,3.0,-999.0,81,-99.99,,,-99.99,,2013-03-27 10:12:00,
2013-03-27 03:22:00,50.0,45.0,29.94,South,180,6.0,-999.0,81,-99.99,,,-99.99,,2013-03-27 10:22:00,
2013-03-27 03:31:00,48.0,45.0,29.93,South,170,5.0,-999.0,87,-99.99,,,-99.99,,2013-03-27 10:31:00,
2013-03-27 03:41:00,48.0,45.0,29.93,South,180,5.0,-999.0,87,-99.99,,,-99.99,,2013-03-27 10:41:00,
2013-03-27 03:52:00,48.0,43.0,29.93,North,0,0.0,-999.0,81,-99.99,,,-99.99,,2013-03-27 10:52:00,
2013-03-27 04:02:00,48.0,43.0,29.93,North,0,0.0,-999.0,81,-99.99,,,-99.99,,2013-03-27 11:02:00,
2013-03-27 04:11:00,52.0,43.0,29.94,South,180,2.0,-999.0,71,-99.99,,,-99.99,,2013-03-27 11:11:00,
2013-03-27 04:21:00,48.0,45.0,29.93,South,180,2.0,-999.0,87,-99.99,,,-99.99,,2013-03-27 11:21:00,
2013-03-27 04:32:00,48.0,45.0,29.93,North,0,0.0,-999.0,87,-99.99,,,-99.99,,2013-03-27 11:32:00,
2013-03-27 04:42:00,48.0,45.0,29.93,SE,130,5.0,-999.0,87,-99.99,,,-99.99,,2013-03-27 11:42:00,
2013-03-27 04:52:00,48.0,45.0,29.94,ESE,110,3.0,-999.0,87,-99.99,,,-99.99,,2013-03-27 11:52:00,
2013-03-27 05:02:00,48.0,45.0,29.94,ESE,110,3.0,-999.0,87,-99.99,,,-99.99,,2013-03-27 12:02:00,
2013-03-27 05:11:00,48.0,45.0,29.94,East,100,1.0,-999.0,87,-99.99,,,-99.99,,2013-03-27 12:11:00,
2013-03-27 05:22:00,48.0,45.0,29.93,SSE,150,3.0,-999.0,87,-99.99,,,-99.99,,2013-03-27 12:22:00,
2013-03-27 05:31:00,48.0,45.0,29.93,SSE,160,3.0,-999.0,87,-99.99,,,-99.99,,2013-03-27 12:31:00,
2013-03-27 05:42:00,48.0,45.0,29.94,North,0,0.0,-999.0,87,-99.99,,,-99.99,,2013-03-27 12:42:00,
2013-03-27 05:51:00,50.0,45.0,29.94,North,0,0.0,-999.0,81,-99.99,,,-99.99,,2013-03-27 12:51:00,
2013-03-27 06:02:00,50.0,45.0,29.94,North,0,0.0,-999.0,81,-99.99,,,-99.99,,2013-03-27 13:02:00,
2013-03-27 06:11:00,48.0,45.0,29.94,ENE,60,2.0,-999.0,87,-99.99,,,-99.99,,2013-03-27 13:11:00,
2013-03-27 06:21:00,50.0,45.0,29.94,North,0,0.0,-999.0,81,-99.99,,,-99.99,,2013-03-27 13:21:00,
2013-03-27 06:32:00,50.0,46.0,29.94,North,0,0.0,-999.0,87,-99.99,,,-99.99,,2013-03-27 13:32:00,
2013-03-27 06:41:00,50.0,46.0,29.94,NNE,20,3.0,-999.0,87,-99.99,,,-99.99,,2013-03-27 13:41:00,
2013-03-27 07:02:00,48.0,45.0,29.94,NE,40,2.0,-999.0,87,-99.99,,,-99.99,,2013-03-27 14:02:00,
2013-03-27 07:11:00,48.0,45.0,29.94,SE,140,2.0,-999.0,87,-99.99,,,-99.99,,2013-03-27 14:11:00,
2013-03-27 07:21:00,50.0,46.0,29.95,East,90,3.0,-999.0,87,-99.99,,,-99.99,,2013-03-27 14:21:00,
2013-03-27 07:31:00,50.0,46.0,29.95,North,0,0.0,-999.0,87,-99.99,,,-99.99,,2013-03-27 14:31:00,
2013-03-27 07:41:00,50.0,46.0,29.95,North,0,0.0,-999.0,87,-99.99,,,-99.99,,2013-03-27 14:41:00,
2013-03-27 07:51:00,50.0,46.0,29.95,North,0,0.0,-999.0,87,-99.99,,,-99.99,,2013-03-27 14:51:00,
2013-03-27 08:11:00,50.0,46.0,29.96,ESE,110,2.0,-999.0,87,-99.99,,,-99.99,,2013-03-27 15:11:00,
2013-03-27 08:21:00,52.0,46.0,29.96,ESE,120,3.0,-999.0,81,-99.99,,,-99.99,,2013-03-27 15:21:00,
2013-03-27 08:32:00,52.0,46.0,29.96,East,90,1.0,-999.0,81,-99.99,,,-99.99,,2013-03-27 15:32:00,
2013-03-27 08:42:00,54.0,46.0,29.96,North,0,0.0,-999.0,76,-99.99,,,-99.99,,2013-03-27 15:42:00,
2013-03-27 08:52:00,55.0,46.0,29.96,ESE,110,2.0,-999.0,71,-99.99,,,-99.99,,2013-03-27 15:52:00,
2013-03-27 09:02:00,55.0,46.0,29.96,ESE,110,2.0,-999.0,71,-99.99,,,-99.99,,2013-03-27 16:02:00,
2013-03-27 09:12:00,55.0,48.0,29.96,North,0,0.0,-999.0,76,-99.99,,,-99.99,,2013-03-27 16:12:00,
2013-03-27 09:22:00,57.0,48.0,29.97,North,0,0.0,-999.0,71,-99.99,,,-99.99,,2013-03-27 16:22:00,
2013-03-27 09:32:00,61.0,50.0,29.97,SW,220,6.0,-999.0,67,-99.99,,,-99.99,,2013-03-27 16:32:00,
2013-03-27 09:42:00,61.0,52.0,29.97,SW,230,5.0,-999.0,72,-99.99,,,-99.99,,2013-03-27 16:42:00,
2013-03-27 09:52:00,63.0,52.0,29.97,SW,230,6.0,-999.0,67,-99.99,,,-99.99,,2013-03-27 16:52:00,
2013-03-27 10:02:00,63.0,52.0,29.97,SW,230,6.0,-999.0,67,-99.99,,,-99.99,,2013-03-27 17:02:00,
2013-03-27 10:11:00,63.0,52.0,29.97,WSW,240,9.0,-999.0,67,-99.99,,,-99.99,,2013-03-27 17:11:00,
2013-03-27 10:22:00,63.0,50.0,29.97,SW,230,7.0,-999.0,63,-99.99,,,-99.99,,2013-03-27 17:22:00,
2013-03-27 10:32:00,64.0,50.0,29.97,SW,230,7.0,-999.0,59,-99.99,,,-99.99,,2013-03-27 17:32:00,
2013-03-27 10:44:00,64.0,50.0,29.97,SW,220,8.0,-999.0,59,-99.99,,,-99.99,,2013-03-27 17:44:00,
2013-03-27 10:52:00,64.0,50.0,29.98,SW,230,8.0,-999.0,59,-99.99,,,-99.99,,2013-03-27 17:52:00,
2013-03-27 11:02:00,64.0,50.0,29.98,SW,230,8.0,-999.0,59,-99.99,,,-99.99,,2013-03-27 18:02:00,
2013-03-27 11:11:00,64.0,50.0,29.98,SSW,200,3.0,-999.0,59,-99.99,,,-99.99,,2013-03-27 18:11:00,
2013-03-27 11:22:00,66.0,52.0,29.97,WSW,250,8.0,-999.0,59,-99.99,,,-99.99,,2013-03-27 18:22:00,
2013-03-27 11:31:00,66.0,52.0,29.97,SW,220,7.0,-999.0,59,-99.99,,,-99.99,,2013-03-27 18:31:00,
2013-03-27 11:42:00,66.0,52.0,29.97,West,260,7.0,-999.0,59,-99.99,,,-99.99,,2013-03-27 18:42:00,
2013-03-27 11:52:00,66.0,52.0,29.97,West,260,3.0,-999.0,59,-99.99,,,-99.99,,2013-03-27 18:52:00,
2013-03-27 12:02:00,66.0,52.0,29.97,WNW,300,3.0,-999.0,59,-99.99,,,-99.99,,2013-03-27 19:02:00,
2013-03-27 12:11:00,64.0,52.0,29.97,SW,220,7.0,-999.0,63,-99.99,,,-99.99,,2013-03-27 19:11:00,
2013-03-27 12:21:00,66.0,52.0,29.97,WSW,250,5.0,-999.0,59,-99.99,,,-99.99,,2013-03-27 19:21:00,
2013-03-27 12:31:00,66.0,52.0,29.97,West,260,5.0,-999.0,59,-99.99,,,-99.99,,2013-03-27 19:31:00,
2013-03-27 12:42:00,66.0,52.0,29.97,SW,230,7.0,-999.0,59,-99.99,,,-99.99,,2013-03-27 19:42:00,
2013-03-27 12:52:00,68.0,52.0,29.97,WSW,240,6.0,-999.0,56,-99.99,,,-99.99,,2013-03-27 19:52:00,
2013-03-27 13:02:00,68.0,52.0,29.97,WSW,240,6.0,-999.0,56,-99.99,,,-99.99,,2013-03-27 20:02:00,
2013-03-27 13:11:00,68.0,52.0,29.97,WSW,240,3.0,-999.0,56,-99.99,,,-99.99,,2013-03-27 20:11:00,
2013-03-27 13:21:00,70.0,52.0,29.96,West,270,6.0,-999.0,52,-99.99,,,-99.99,,2013-03-27 20:21:00,
2013-03-27 13:31:00,70.0,52.0,29.96,SW,220,7.0,-999.0,52,-99.99,,,-99.99,,2013-03-27 20:31:00,
2013-03-27 13:42:00,70.0,52.0,29.96,WNW,300,5.0,-999.0,52,-99.99,,,-99.99,,2013-03-27 20:42:00,
2013-03-27 13:52:00,70.0,48.0,29.96,SSE,160,10.0,-999.0,46,-99.99,,,-99.99,,2013-03-27 20:52:00,
2013-03-27 14:01:00,70.0,48.0,29.96,SSE,160,10.0,-999.0,46,-99.99,,,-99.99,,2013-03-27 21:01:00,
2013-03-27 14:11:00,70.0,50.0,29.96,South,170,12.0,-999.0,49,-99.99,,,-99.99,,2013-03-27 21:11:00,
2013-03-27 14:21:00,70.0,52.0,29.95,South,180,12.0,17.0,52,-99.99,,,-99.99,,2013-03-27 21:21:00,
2013-03-27 14:31:00,72.0,52.0,29.95,South,170,15.0,-999.0,49,-99.99,,,-99.99,,2013-03-27 21:31:00,
2013-03-27 14:42:00,70.0,52.0,29.95,South,180,9.0,17.0,52,-99.99,,,-99.99,,2013-03-27 21:42:00,
2013-03-27 14:52:00,72.0,52.0,29.95,South,190,12.0,-999.0,49,-99.99,,,-99.99,,2013-03-27 21:52:00,
2013-03-27 15:02:00,72.0,52.0,29.95,South,190,12.0,-999.0,49,-99.99,,,-99.99,,2013-03-27 22:02:00,
2013-03-27 15:12:00,70.0,52.0,29.95,SSW,200,9.0,18.0,52,-99.99,,,-99.99,,2013-03-27 22:12:00,
2013-03-27 15:22:00,68.0,50.0,29.95,WSW,240,9.0,-999.0,52,-99.99,,,-99.99,,2013-03-27 22:22:00,
2013-03-27 15:32:00,66.0,50.0,29.95,SW,220,16.0,16.0,55,-99.99,,,-99.99,,2013-03-27 22:32:00,
2013-03-27 15:42:00,70.0,52.0,29.95,South,190,13.0,18.0,52,-99.99,,,-99.99,,2013-03-27 22:42:00,
2013-03-27 15:52:00,70.0,52.0,29.96,SSE,160,13.0,20.0,52,-99.99,,,-99.99,,2013-03-27 22:52:00,
2013-03-27 16:02:00,70.0,52.0,29.96,SSE,160,13.0,20.0,52,-99.99,,,-99.99,,2013-03-27 23:02:00,
2013-03-27 16:11:00,70.0,50.0,29.96,South,170,14.0,20.0,49,-99.99,,,-99.99,,2013-03-27 23:11:00,
2013-03-27 16:21:00,68.0,50.0,29.96,South,190,9.0,16.0,52,-99.99,,,-99.99,,2013-03-27 23:21:00,
2013-03-27 16:31:00,68.0,50.0,29.96,South,180,16.0,-999.0,52,-99.99,,,-99.99,,2013-03-27 23:31:00,
2013-03-27 16:42:00,68.0,48.0,29.96,South,180,10.0,21.0,49,-99.99,,,-99.99,,2013-03-27 23:42:00,
2013-03-27 16:51:00,66.0,48.0,29.96,SSW,210,13.0,-999.0,52,-99.99,,,-99.99,,2013-03-27 23:51:00,
2013-03-27 17:01:00,66.0,48.0,29.96,SSW,210,13.0,-999.0,52,-99.99,,,-99.99,,2013-03-28 00:01:00,
2013-03-27 17:11:00,66.0,48.0,29.96,SSW,200,10.0,21.0,52,-99.99,,,-99.99,,2013-03-28 00:11:00,
2013-03-27 17:21:00,66.0,48.0,29.97,South,190,14.0,-999.0,52,-99.99,,,-99.99,,2013-03-28 00:21:00,
2013-03-27 17:31:00,66.0,48.0,29.97,South,190,13.0,21.0,52,-99.99,,,-99.99,,2013-03-28 00:31:00,
2013-03-27 17:41:00,64.0,48.0,29.97,SSW,210,15.0,-999.0,55,-99.99,,,-99.99,,2013-03-28 00:41:00,
2013-03-27 18:01:00,64.0,48.0,29.97,SSW,200,13.0,-999.0,55,-99.99,,,-99.99,,2013-03-28 01:01:00,
2013-03-27 18:11:00,64.0,48.0,29.97,SW,220,10.0,-999.0,55,-99.99,,,-99.99,,2013-03-28 01:11:00,
2013-03-27 18:21:00,64.0,48.0,29.97,SSW,210,15.0,-999.0,55,-99.99,,,-99.99,,2013-03-28 01:21:00,
2013-03-27 18:31:00,63.0,50.0,29.97,SW,220,15.0,-999.0,63,-99.99,,,-99.99,,2013-03-28 01:31:00,
2013-03-27 18:42:00,63.0,48.0,29.97,SW,230,12.0,-999.0,59,-99.99,,,-99.99,,2013-03-28 01:42:00,
2013-03-27 18:52:00,63.0,50.0,29.96,WSW,250,8.0,-999.0,63,-99.99,,,-99.99,,2013-03-28 01:52:00,
2013-03-27 19:02:00,63.0,50.0,29.96,WSW,250,8.0,-999.0,63,-99.99,,,-99.99,,2013-03-28 02:02:00,
2013-03-27 19:11:00,61.0,50.0,29.97,SW,230,7.0,-999.0,67,-99.99,,,-99.99,,2013-03-28 02:11:00,
2013-03-27 19:21:00,61.0,50.0,29.97,WSW,240,8.0,-999.0,67,-99.99,,,-99.99,,2013-03-28 02:21:00,
2013-03-27 19:31:00,59.0,50.0,29.97,SW,220,6.0,-999.0,72,-99.99,,,-99.99,,2013-03-28 02:31:00,
2013-03-27 19:41:00,59.0,50.0,29.97,SW,220,6.0,-999.0,72,-99.99,,,-99.99,,2013-03-28 02:41:00,
2013-03-27 19:51:00,59.0,50.0,29.97,SW,220,6.0,-999.0,72,-99.99,,,-99.99,,2013-03-28 02:51:00,
2013-03-27 20:01:00,59.0,48.0,29.98,SSW,210,5.0,-999.0,67,-99.99,,,-99.99,,2013-03-28 03:01:00,
2013-03-27 20:21:00,57.0,48.0,29.98,SSE,150,5.0,-999.0,71,-99.99,,,-99.99,,2013-03-28 03:21:00,
2013-03-27 20:32:00,55.0,48.0,29.98,SSE,160,6.0,-999.0,76,-99.99,,,-99.99,,2013-03-28 03:32:00,
2013-03-27 20:42:00,55.0,48.0,29.99,SSE,150,6.0,-999.0,76,-99.99,,,-99.99,,2013-03-28 03:42:00,
2013-03-27 20:52:00,55.0,48.0,29.99,SSE,160,3.0,-999.0,76,-99.99,,,-99.99,,2013-03-28 03:52:00,
2013-03-27 21:02:00,55.0,48.0,29.99,SSE,160,3.0,-999.0,76,-99.99,,,-99.99,,2013-03-28 04:02:00,
2013-03-27 21:12:00,55.0,50.0,29.99,ESE,120,6.0,-999.0,81,-99.99,,,-99.99,,2013-03-28 04:12:00,
2013-03-27 21:22:00,54.0,50.0,29.99,SE,140,7.0,-999.0,87,-99.99,,,-99.99,,2013-03-28 04:22:00,
2013-03-27 21:32:00,54.0,50.0,30.00,SE,130,7.0,-999.0,87,-99.99,,,-99.99,,2013-03-28 04:32:00,
2013-03-27 21:42:00,54.0,50.0,30.00,SSE,160,7.0,-999.0,87,-99.99,,,-99.99,,2013-03-28 04:42:00,
2013-03-27 21:52:00,54.0,50.0,30.00,SSE,150,8.0,-999.0,87,-99.99,,,-99.99,,2013-03-28 04:52:00,
2013-03-27 22:02:00,54.0,50.0,30.00,SSE,150,8.0,-999.0,87,-99.99,,,-99.99,,2013-03-28 05:02:00,
2013-03-27 22:11:00,54.0,50.0,30.00,SSE,160,8.0,-999.0,87,-99.99,,,-99.99,,2013-03-28 05:11:00,
2013-03-27 22:22:00,54.0,50.0,30.01,SSE,160,6.0,-999.0,87,-99.99,,,-99.99,,2013-03-28 05:22:00,
2013-03-27 22:31:00,54.0,50.0,30.01,SSE,150,6.0,-999.0,87,-99.99,,,-99.99,,2013-03-28 05:31:00,
2013-03-27 22:42:00,54.0,50.0,30.01,SSE,160,6.0,-999.0,87,-99.99,,,-99.99,,2013-03-28 05:42:00,
2013-03-27 22:51:00,52.0,50.0,30.02,SSE,160,7.0,-999.0,93,-99.99,,,-99.99,,2013-03-28 05:51:00,
2013-03-27 23:02:00,52.0,50.0,30.02,SSE,160,7.0,-999.0,93,-99.99,,,-99.99,,2013-03-28 06:02:00,
2013-03-27 23:11:00,52.0,48.0,30.02,SE,140,3.0,-999.0,87,-99.99,,,-99.99,,2013-03-28 06:11:00,
2013-03-27 23:22:00,52.0,48.0,30.02,SSE,150,6.0,-999.0,87,-99.99,,,-99.99,,2013-03-28 06:22:00,
2013-03-27 23:31:00,52.0,48.0,30.02,SSE,150,1.0,-999.0,87,-99.99,,,-99.99,,2013-03-28 06:31:00,
2013-03-27 23:41:00,52.0,48.0,30.02,SSE,150,3.0,-999.0,87,-99.99,,,-99.99,,2013-03-28 06:41:00,
2013-03-27 23:51:00,52.0,48.0,30.02,South,170,2.0,-999.0,87,-99.99,,,-99.99,,2013-03-28 06:51:00,